Regional Weather Roundup
Issued by NWS Sterling, VA

Home | Current Version | Previous Version | Graphics & Text | Print | Product List | Glossary On
Versions: 1 2 3 4 5 6 7 8 9 10 11 12 13 14 15 16 17 18 19 20 21 22 23 24 25 26 27 28
000
ASUS41 KLWX 230910
RWRLWX

REGIONAL WEATHER ROUNDUP
NATIONAL WEATHER SERVICE BALTIMORE MD/WASHINGTON DC
500 AM EDT TUE AUG 23 2016

Note: "FAIR" indicates few or no clouds below 12,000 feet
with no significant weather and/or obstructions to visibility.
 TC=TEMPERATURE CELSIUS

 * =Non NWS site. Station does not report precipitation (e.g. rain,
    snow, etc.), thunder, or fog.

DCZ001-MDZ009-015-VAZ040>042-051-053>054-231000-
WASHINGTON METRO

CITY           SKY/WX    TMP DP  RH WIND       PRES   REMARKS
WASHINGTON NAT PTCLDY    69  60  73 NE6       30.28R
DULLES         PTCLDY    62  59  90 CALM      30.29R
ANDREWS AFB    CLEAR     62  58  85 E1        30.27R
FT BELVOIR     CLEAR     62  61  95 N1        30.27R
QUANTICO       MOCLDY    72  60  66 NE5       30.28R
COLLEGE PARK*  CLEAR     59  59 100 CALM      30.28R
LEESBURG*      CLEAR     61  61 100 CALM      30.30R
MANASSAS*      CLEAR     61  59  94 N3        30.28R
GAITHERSBURG*  CLEAR     57  54  88 CALM      30.33R

$$

MDZ006>007-011-014-231000-
BALTIMORE METRO

CITY           SKY/WX    TMP DP  RH WIND       PRES   REMARKS
BWI AIRPORT    PTCLDY    61  58  90 CALM      30.28R
MD SCIENCE CTR   N/A     69  55  60 MISG      30.28R
MARTIN STATE   CLEAR     63  61  94 CALM      30.30R
ANNAPOLIS      CLEAR     71  59  65 E5        30.27R
FORT MEADE*    CLEAR     57  55  94 CALM      30.31R

$$

MDZ012-015-019>023-231000-
MARYLAND EASTERN SHORE

CITY           SKY/WX    TMP DP  RH WIND       PRES   REMARKS
OCEAN CITY     CLEAR     70  54  56 NE7       30.25R
SALISBURY      CLEAR     61  57  87 N3        30.26R
BAY BRIDGE AP* CLEAR     66  55  68 E6        30.27R
CAMBRIDGE*     CLEAR     59  55  88 CALM      30.27R
EASTON*        CLEAR     64  61  90 CALM      30.31R

$$

MDZ017>025-231000-
SOUTHERN MARYLAND

CITY           SKY/WX    TMP DP  RH WIND       PRES   REMARKS
PATUXENT RIVER CLEAR     70  54  56 E12       30.26R
ST INIGOES     CLEAR     68  58  70 NE5       30.25R
LEONARDTOWN*   CLEAR     66  59  77 NE3       30.28R

$$

MDZ003>005-231000-
NORTH CENTRAL MARYLAND

CITY           SKY/WX    TMP DP  RH WIND       PRES   REMARKS
FREDERICK*     CLEAR     55  55 100 CALM      30.32R
HAGERSTOWN APT CLEAR     60  53  77 CALM      30.30R

$$

MDZ501>502-231000-
WESTERN MARYLAND

CITY           SKY/WX    TMP DP  RH WIND       PRES   REMARKS
OAKLAND*       MOCLDY    57  54  88 S5        30.36R
CUMBERLAND*    CLOUDY    59  59 100 CALM      30.35R

$$

VAZ025>031-231000-
SHENANDOAH VALLEY

CITY           SKY/WX    TMP DP  RH WIND       PRES   REMARKS
WINCHESTER*    CLOUDY    59  55  88 CALM      30.30R
FRONT ROYAL*   FAIR      57  57 100 CALM      30.29R
LURAY*         FAIR     N/A N/A N/A CALM      30.29S
NEW MARKET*    CLOUDY   N/A N/A N/A CALM      30.30R
STAUNTON*      CLOUDY    59  57  94 CALM      30.33R
WAYNESBORO*    PTSUNNY   60  59  96 CALM      30.32R

$$

WVZ021-048>050-054>055-231000-
EASTERN WEST VIRGINIA PANHANDLE

CITY           SKY/WX    TMP DP  RH WIND       PRES   REMARKS
MARTINSBURG    CLEAR     58  56  93 CALM      30.29R
PETERSBURG*    PTCLDY    55  55  97 CALM      30.32R

$$

VAZ036>039-050-231000-
CENTRAL FOOTHILLS

CITY           SKY/WX    TMP DP  RH WIND       PRES   REMARKS
CHARLOTTESVILL MOCLDY    64  62  93 CALM      30.28R
CULPEPER*      CLEAR     62  62  97 CALM      30.29R
ORANGE*          N/A     64  63  94 CALM      30.29R
GORDONSVILLE*  NOT AVBL
WARRENTON*     MOCLDY    64  57  77 NE3       30.28R

$$

VAZ055>057-231000-
NORTH AND CENTRAL PIEDMONT

CITY           SKY/WX    TMP DP  RH WIND       PRES   REMARKS
FREDERICKSBRG*   N/A     69  64  86 CALM      30.26R
STAFFORD*      CLOUDY    65  62  89 CALM      30.31R

$$

NCZ024-NYZ072-PAZ021-071-VAZ022-071-231000-
OTHER REGIONAL OBSERVATIONS

CITY           SKY/WX    TMP DP  RH WIND       PRES   REMARKS
NEW YORK CITY  CLEAR     62  52  69 NW3       30.29R
PHILADELPHIA   CLEAR     64  52  64 NW6       30.28R
PITTSBURGH     CLEAR     60  54  80 CALM      30.29R
ROANOKE        PTCLDY    61  56  83 CALM      30.31R
RICHMOND       CLOUDY    65  61  87 N3        30.25R
RALEIGH        MOCLDY    68  60  75 E3        30.23R

$$

ANZ530>537-231000-
MARINE OBSERVATIONS

STATION/POSITION TIME  TEMP    WIND        PRES
                       AIR SEA DIR/SP/G
                 (UTC) (F)     (DEG/KT/KT) (MB)
THOMAS PT LIGHT  0900   72 82   90/  9/ 11 1026.4R
BALT KEY BRIDGE  0848   68      20/  5/  6 1025.2R
COVE POINT       0848   71     120/ 13/ 17 1025.3R
LEWISETTA        0848   76 82   90/ 14/ 16 1023.8R
SOLOMONS ISLAND  0848   73 84   80/ 13/ 16   N/A
PINEY POINT      0848           70/  5/  7   N/A

$$





USA.gov is the U.S. government's official web portal to all federal, state and local government web resources and services.